Regional Weather Roundup
Issued by NWS

Home | Current Version | Previous Version | Text Only | Print | Product List | Glossary On
Versions: 1 2 3 4 5 6 7 8 9 10 11 12 13 14 15 16 17 18 19 20 21 22 23 24 25 26 27 28 29 30 31 32 33 34 35 36 37 38 39 40 41 42 43 44 45 46 47 48 49 50
000
ASUS43 KLSX 250707
RWRMO

WEATHER SUMMARY FOR MISSOURI
NATIONAL WEATHER SERVICE SPRINGFIELD MO
200 AM CDT FRI APR 25 2014

NOTE: "FAIR" INDICATES FEW OR NO CLOUDS BELOW 12,000 FEET WITH NO
       SIGNIFICANT WEATHER AND/OR OBSTRUCTIONS TO VISIBILITY.
       CURRENT SKY AND/OR WEATHER CONDITIONS ARE NOT AVAILABLE FOR
       CHILLICOTHE AND FARMINGTON.

MOZ001>031-035>038-043-044-053-054-250800-
...NORTHERN AND WESTERN MISSOURI...

CITY           SKY/WX    TMP DP  RH WIND       PRES   REMARKS
KANSAS CTY INT CLEAR     48  43  82 SW7       29.87R
KANSAS C DTWN  CLEAR     50  45  83 SW5       29.87S
LEE`S SUMMIT   CLEAR     48  44  86 SW5       29.88R
ST JOSEPH      FOG       43  42  97 S3        29.86S VSB 1/2
CHILLICOTHE      N/A     50  44  80 NW3       29.85R
KIRKSVILLE     CLOUDY    48  44  86 NW10      29.80R

$$
MOZ066>068-077>081-088>096-101>105-250800-
...SOUTHWEST MISSOURI...

CITY           SKY/WX    TMP DP  RH WIND       PRES   REMARKS
SPRINGFIELD    CLEAR     50  44  80 NW7       29.88S
JOPLIN         CLEAR     46  43  89 CALM      29.91F

$$
MOZ032>034-039>042-045>050-055>058-069>072-250800-
...CENTRAL MISSOURI...

CITY           SKY/WX    TMP DP  RH WIND       PRES   REMARKS
COLUMBIA       CLOUDY    50  46  86 NW10      29.82R
JEFFERSON CITY CLOUDY    51  47  86 W8        29.82R
ROLLA          CLOUDY    50  47  89 W12       29.80R
SEDALIA        CLEAR     51  46  83 W9        29.86R
WHITEMAN AFB   CLEAR     49  40  71 W7        29.86R
OSAGE BEACH    MOCLDY    52  45  76 W6        29.86R

$$
MOZ051-052-059>065-250800-
...EAST CENTRAL MISSOURI...

CITY           SKY/WX    TMP DP  RH WIND       PRES   REMARKS
ST LOUIS INTL  DRIZZLE   57  52  83 W15G23    29.71R
SPIRIT OF STL  CLOUDY   N/A N/A N/A W14G21    29.73R
ST CHARLES     CLOUDY    56  52  86 NW20G28   29.71R

$$
MOZ072>076-082>087-097>100-106>115-250800-
...SOUTH CENTRAL AND SOUTHEAST MISSOURI...

CITY           SKY/WX    TMP DP  RH WIND       PRES   REMARKS
CAPE GIRARDEAU MOCLDY    58  56  93 W8        29.70R
FARMINGTON     CLOUDY    55  54  94 W7        29.73F
POPLAR BLUFF   PTCLDY    58  52  80 W8        29.73R
WEST PLAINS    PTCLDY    53  46  77 NW16G28   29.83R

$$



USA.gov is the U.S. government's official web portal to all federal, state and local government web resources and services.